Location: Eurasberg
(48.3353°N, 11.0839°E)
Time: 14:48:03
(UTC+00:00)

Okean 1-7 - Pass Details

Date: 18 January 2026
Orbit: 566 x 588 km, 82.5° (Epoch: 18 February)

Event Time Altitude Azimuth Distance (km) Brightness Sun altitude
Exits shadow 04:51:45 - 357° (N) 2,423 6.0 -20.8°
Reaches altitude 10° 04:53:07 10° 1° (N) 1,885 5.5 -20.6°
Maximum altitude 04:57:07 46° 76° (ENE) 773 3.9 -19.9°
Drops below altitude 10° 05:01:08 10° 151° (SSE) 1,882 6.0 -19.2°
Sets 05:03:23 0° 157° (SSE) 2,780 6.9 -18.9°
